2023/02/26 00:00:00,50.6,-2.2
2023/02/26 00:10:00,50.5,-2.8
2023/02/26 00:20:00,50.5,-2.9
2023/02/26 00:30:00,51.2,-2.4
2023/02/26 00:40:00,52.1,-2.9
2023/02/26 00:50:00,53.4,-2.6
2023/02/26 01:00:00,54.6,-2.4
2023/02/26 01:10:00,55.4,-2.7
2023/02/26 01:20:00,55.3,-2.4
2023/02/26 01:30:00,55.0,-2.5
2023/02/26 01:40:00,54.9,-2.4
2023/02/26 01:50:00,55.1,-2.7
2023/02/26 02:00:00,55.0,-2.4
2023/02/26 02:10:00,55.0,-2.5
2023/02/26 02:20:00,55.1,-2.6
2023/02/26 02:30:00,55.0,-2.7
2023/02/26 02:40:00,54.9,-2.4
2023/02/26 02:50:00,54.9,-2.2
2023/02/26 03:00:00,55.0,-2.4
2023/02/26 03:10:00,54.8,-2.6
2023/02/26 03:20:00,54.8,-2.6
2023/02/26 03:30:00,54.7,-2.4
2023/02/26 03:40:00,55.0,-2.3
2023/02/26 03:50:00,55.2,-2.3
2023/02/26 04:00:00,55.1,-2.6
2023/02/26 04:10:00,55.0,-2.5
2023/02/26 04:20:00,54.9,-2.8
2023/02/26 04:30:00,54.8,-2.4
2023/02/26 04:40:00,54.8,-2.8
2023/02/26 04:50:00,54.7,-2.5
2023/02/26 05:00:00,54.7,-2.8
2023/02/26 05:10:00,54.7,-2.9
2023/02/26 05:20:00,54.6,-2.7
2023/02/26 05:30:00,54.6,-2.8
2023/02/26 05:40:00,54.4,-3.2
2023/02/26 05:50:00,54.3,-3.0
2023/02/26 06:00:00,54.2,-3.4
2023/02/26 06:10:00,54.2,-3.5
2023/02/26 06:20:00,54.2,-3.8
2023/02/26 06:30:00,54.2,-2.9
2023/02/26 06:40:00,54.3,-3.1
2023/02/26 06:50:00,54.3,-2.9
2023/02/26 07:00:00,54.3,-3.1
2023/02/26 07:10:00,54.3,-2.9
2023/02/26 07:20:00,54.2,-2.7
2023/02/26 07:30:00,54.2,-2.3
2023/02/26 07:40:00,54.2,-2.4
2023/02/26 07:50:00,54.1,-2.2
2023/02/26 08:00:00,54.0,-1.0
2023/02/26 08:10:00,53.9,-1.2
2023/02/26 08:20:00,53.9,-0.7
2023/02/26 08:30:00,53.9,-0.7
2023/02/26 08:40:00,53.9,-0.7
2023/02/26 08:50:00,53.8,-0.4
2023/02/26 09:00:00,53.7, 0.0
2023/02/26 09:10:00,53.7, 2.8
2023/02/26 09:20:00,53.7, 5.3
2023/02/26 09:30:00,53.7, 3.0
2023/02/26 09:40:00,53.7, 1.6
2023/02/26 09:50:00,53.7, 2.4
2023/02/26 10:00:00,53.6, 8.1
2023/02/26 10:10:00,53.4, 8.5
2023/02/26 10:20:00,53.4, 3.4
2023/02/26 10:30:00,53.3, 3.2
2023/02/26 10:40:00,53.4, 4.4
2023/02/26 10:50:00,53.3, 2.4
2023/02/26 11:00:00,53.1, 3.7
2023/02/26 11:10:00,53.0, 2.9
2023/02/26 11:20:00,52.7, 2.7
2023/02/26 11:30:00,53.0, 2.3
2023/02/26 11:40:00,52.9, 3.7
2023/02/26 11:50:00,52.5, 3.6
2023/02/26 12:00:00,52.5, 3.7
2023/02/26 12:10:00,52.3, 3.1
2023/02/26 12:20:00,52.0, 2.8
2023/02/26 12:30:00,52.1, 3.8
2023/02/26 12:40:00,52.2, 2.9
2023/02/26 12:50:00,52.0, 2.3
2023/02/26 13:00:00,51.9, 1.8
2023/02/26 13:10:00,51.8, 2.4
2023/02/26 13:20:00,51.6, 2.4
2023/02/26 13:30:00,51.4, 2.8
2023/02/26 13:40:00,51.4, 4.9
2023/02/26 13:50:00,51.3, 3.5
2023/02/26 14:00:00,51.1, 3.1
2023/02/26 14:10:00,50.9, 2.7
2023/02/26 14:20:00,50.9, 2.4
2023/02/26 14:30:00,50.8, 4.0
2023/02/26 14:40:00,50.6, 4.0
2023/02/26 14:50:00,50.5, 3.0
2023/02/26 15:00:00,50.7, 2.4
2023/02/26 15:10:00,50.6, 2.4
2023/02/26 15:20:00,50.5, 1.9
2023/02/26 15:30:00,50.2, 3.1
2023/02/26 15:40:00,50.1, 3.0
2023/02/26 15:50:00,50.1, 2.7
2023/02/26 16:00:00,50.0, 2.4
2023/02/26 16:10:00,50.0, 2.2
2023/02/26 16:20:00,50.1, 1.3
2023/02/26 16:30:00,50.1, 0.9
2023/02/26 16:40:00,50.1, 0.8
2023/02/26 16:50:00,50.1, 0.5
2023/02/26 17:00:00,50.2, 0.4
2023/02/26 17:10:00,50.1, 0.5
2023/02/26 17:20:00,50.1, 0.6
2023/02/26 17:30:00,50.0, 0.0
2023/02/26 17:40:00,50.0, 0.2
2023/02/26 17:50:00,50.0,-0.3
2023/02/26 18:00:00,50.0, 0.3
2023/02/26 18:10:00,50.0,-0.6
2023/02/26 18:20:00,49.9,-0.1
2023/02/26 18:30:00,49.9,-0.5
2023/02/26 18:40:00,49.9,-0.5
2023/02/26 18:50:00,49.9,-0.9
2023/02/26 19:00:00,50.0,-1.1
2023/02/26 19:10:00,49.9,-1.2
2023/02/26 19:20:00,49.9,-1.1
2023/02/26 19:30:00,49.9,-1.4
2023/02/26 19:40:00,49.9,-1.9
2023/02/26 19:50:00,49.9,-1.7
2023/02/26 20:00:00,49.9,-2.5
2023/02/26 20:10:00,49.9,-2.4
2023/02/26 20:20:00,49.9,-2.8
2023/02/26 20:30:00,49.9,-3.0
2023/02/26 20:40:00,49.9,-2.9
2023/02/26 20:50:00,49.9,-2.8
2023/02/26 21:00:00,49.9,-2.8
2023/02/26 21:10:00,49.9,-2.8
2023/02/26 21:20:00,49.9,-3.1
2023/02/26 21:30:00,49.9,-2.7
2023/02/26 21:40:00,49.9,-2.6
2023/02/26 21:50:00,49.9,-2.8
2023/02/26 22:00:00,50.0,-2.1
2023/02/26 22:10:00,49.9,-2.6
2023/02/26 22:20:00,50.0,-2.5
2023/02/26 22:30:00,49.9,-2.9
2023/02/26 22:40:00,49.9,-2.8
2023/02/26 22:50:00,49.9,-3.3
2023/02/26 23:00:00,49.9,-3.1
2023/02/26 23:10:00,49.9,-3.2
2023/02/26 23:20:00,50.0,-3.3
2023/02/26 23:30:00,50.0,-3.2
2023/02/26 23:40:00,50.0,-3.4
2023/02/26 23:50:00,50.0,-3.2
